Wind_Speed
65 64 65 65 64 63 61 60 59 59 59 60 62 64 65 67 67 68 68 69 69 70 70 70 70 70 71 71 71 71 71 71 70 70 70 69 69 70 70 70 70 70 70 70 69 69 69 69 70 71 71 72 72 72 71 71 71 71 71 72 73 75 78 79 78 79 78 78 77 77 76 76 77 78 79 80 80 81 80 79 79 78 77 77 76 77 76 76
63 63 63 64 63 61 59 59 58 58 58 58 59 61 63 65 66 67 68 68 69 69 70 70 71 71 71 71 72 72 72 71 71 71 70 70 70 71 71 70 70 70 70 70 70 70 70 71 72 72 72 72 72 72 71 71 71 71 71 72 74 77 79 79 79 79 78 77 77 76 76 75 75 75 75 77 77 78 78 79 79 79 78 78 78 78 77 77
61 61 61 62 62 60 58 58 58 58 57 57 57 58 60 62 64 65 67 68 69 69 70 70 71 71 71 72 72 72 72 72 72 72 71 71 71 71 71 71 71 71 71 71 71 71 71 72 72 72 72 72 72 72 72 71 71 71 71 72 75 78 79 79 79 78 77 76 75 76 75 74 73 73 72 73 74 74 74 75 75 76 76 77 78 79 78 78
58 59 59 60 60 59 59 58 58 58 58 58 57 58 58 59 61 63 65 66 68 69 69 70 71 71 72 72 72 72 73 73 73 72 72 71 71 72 72 72 72 72 72 72 72 72 72 72 73 72 72 72 72 72 72 72 72 71 72 73 76 78 79 79 78 77 77 75 74 74 74 73 72 72 71 71 71 71 72 71 71 71 71 73 75 75 76 77
55 56 56 57 59 59 59 59 59 58 58 58 58 58 58 58 59 60 62 64 66 67 68 69 70 71 71 72 72 73 73 73 73 73 73 72 72 73 73 73 73 73 72 72 72 72 73 73 73 73 73 72 72 72 73 72 71 71 72 74 76 76 78 79 77 76 75 74 73 73 72 71 71 71 70 69 68 69 69 68 68 67 67 68 69 70 71 71
52 53 54 55 57 58 59 59 60 60 59 59 59 59 58 58 58 59 60 61 63 65 66 68 69 70 71 72 72 73 74 74 74 74 74 73 73 74 74 74 74 74 74 73 73 73 74 74 74 73 73 73 73 73 73 72 71 70 71 73 74 75 76 76 74 74 74 72 72 72 70 69 69 68 67 66 66 66 66 65 65 64 65 65 65 66 67 66
49 49 51 53 55 57 58 58 59 61 62 61 61 60 59 59 59 59 59 60 61 63 64 66 67 68 69 71 72 72 73 74 74 74 74 74 74 75 75 75 75 75 75 75 74 75 75 75 75 74 74 73 73 73 72 71 69 69 70 72 73 72 74 73 71 71 71 70 71 69 67 67 67 65 64 63 64 63 63 62 61 62 62 62 63 63 64 61
45 46 47 50 53 55 56 57 57 58 61 63 63 63 61 60 60 59 59 59 60 61 62 63 65 66 68 70 71 72 73 73 74 75 75 75 76 76 76 76 76 76 76 76 76 76 76 76 75 75 74 73 73 72 71 70 68 69 70 71 69 68 70 70 68 68 68 69 69 67 65 67 66 63 62 62 61 61 61 61 61 61 61 61 61 61 61 57
42 43 44 47 50 52 54 55 56 56 57 60 62 64 63 62 61 60 60 60 60 60 60 61 62 64 66 67 69 71 72 73 75 76 76 76 77 77 77 77 77 77 77 77 77 77 76 76 75 74 74 73 72 72 70 69 69 69 69 68 66 65 66 67 65 66 66 67 68 66 65 67 66 62 61 61 61 60 61 61 61 61 60 60 59 60 58 52
41 41 42 45 47 49 51 53 54 55 55 56 58 61 63 63 62 61 60 60 60 60 60 61 62 63 64 65 67 69 70 71 73 75 76 76 76 77 77 77 77 77 77 77 77 77 76 76 75 74 73 72 72 72 70 70 69 67 66 65 64 64 64 65 63 64 65 65 66 65 66 67 64 61 60 61 60 60 60 61 61 61 60 61 59 59 55 49
41 40 41 43 46 47 49 50 51 53 53 54 56 57 59 61 62 61 60 60 60 60 61 61 62 63 64 65 66 67 68 70 71 73 74 74 75 76 76 76 76 76 77 77 77 77 76 75 74 74 73 72 72 71 68 67 66 64 63 62 63 63 63 64 63 64 64 63 65 64 65 65 62 60 60 61 60 60 61 61 62 62 63 62 59 57 52 48
42 40 40 42 45 46 47 48 49 50 51 52 53 55 56 58 59 60 60 60 61 61 61 62 62 63 64 65 65 66 68 69 71 72 73 73 74 75 75 75 76 76 77 77 77 76 75 74 74 73 73 72 70 67 64 62 62 60 60 60 62 62 62 64 64 64 62 62 64 63 62 62 61 60 61 61 62 62 63 63 64 65 65 61 57 55 52 50
43 41 41 42 44 46 47 47 48 48 49 50 51 53 54 55 57 58 59 60 60 61 61 62 63 63 65 66 65 65 68 69 71 72 72 72 73 74 75 76 76 76 77 76 75 74 74 74 74 73 72 70 67 63 60 59 58 58 57 58 60 60 62 64 64 63 62 62 64 60 57 59 60 60 61 62 63 64 66 66 67 66 63 58 56 55 53 54
45 43 42 42 44 46 47 48 48 48 48 49 50 50 51 52 54 55 56 58 59 59 60 61 62 63 65 66 65 65 68 69 71 72 71 72 74 75 75 75 75 76 76 75 74 74 74 73 73 72 70 68 64 61 58 57 56 56 55 56 58 59 61 63 62 62 62 63 62 58 54 55 59 60 60 61 63 66 67 68 68 65 61 57 55 56 56 57
47 45 43 42 44 46 48 48 49 50 50 50 50 50 50 50 51 52 53 54 55 56 57 59 60 61 63 65 64 64 67 69 70 71 71 73 75 75 75 74 75 75 76 76 75 74 73 71 70 69 67 65 62 60 57 55 55 54 54 55 57 57 59 61 60 60 62 62 60 56 52 53 58 60 59 60 63 66 67 68 67 64 60 57 56 58 59 59
49 47 45 43 43 45 47 48 49 50 51 51 51 51 51 51 51 51 52 52 53 54 55 56 58 59 60 63 63 63 64 67 69 70 71 73 75 74 74 74 74 75 75 74 73 71 70 69 68 67 65 63 61 59 57 55 55 54 53 54 55 55 58 59 58 59 60 60 58 54 50 52 56 59 58 59 62 64 66 66 65 62 59 57 57 60 62 62
51 49 47 45 44 44 46 48 48 49 49 49 49 50 51 52 52 53 54 54 54 55 55 56 57 58 60 62 62 62 63 65 68 70 71 73 74 73 73 73 73 73 72 71 70 69 68 68 67 66 65 63 62 59 57 57 56 54 52 53 54 54 57 58 58 58 58 57 56 52 49 50 54 57 57 58 61 62 64 64 61 59 57 55 57 61 64 65
53 51 48 47 45 44 45 46 47 47 47 46 46 48 50 51 52 54 55 56 57 57 57 58 58 59 61 63 63 64 64 66 68 70 72 74 74 73 73 73 72 72 72 70 70 69 68 68 68 66 65 64 63 60 58 57 56 53 52 52 53 53 55 58 59 57 56 55 54 51 49 49 53 57 58 58 60 61 62 60 57 55 54 53 55 60 63 64
54 53 50 48 47 45 44 45 46 47 47 46 45 46 48 50 50 51 53 56 57 57 58 58 59 60 62 63 64 64 65 67 69 71 73 75 74 74 73 73 73 72 72 71 71 70 69 68 67 66 67 66 63 61 58 56 54 53 52 52 53 54 55 59 59 57 55 53 53 52 50 50 53 56 58 59 60 60 60 57 53 53 52 51 54 59 62 63
56 55 52 50 49 47 45 45 46 47 47 45 44 45 46 49 50 50 51 53 54 56 56 57 59 60 62 63 63 64 65 66 69 71 73 75 75 74 74 74 73 72 71 71 70 69 68 67 67 68 69 66 63 60 57 54 53 52 51 52 53 54 56 59 59 57 54 52 53 53 50 50 53 56 59 59 58 58 57 54 52 51 50 51 55 59 61 61
58 57 55 52 51 50 48 47 46 46 46 45 45 45 46 48 48 49 50 52 53 54 55 57 58 60 63 63 62 63 64 65 69 71 73 74 75 74 74 73 72 71 70 69 68 67 66 66 68 70 69 66 62 59 56 53 53 52 52 52 52 53 56 58 58 57 54 50 53 54 51 51 54 57 59 57 55 55 53 51 50 50 50 52 56 58 59 59
60 59 57 55 53 52 51 50 48 47 47 46 47 48 49 48 48 48 49 51 54 54 55 57 58 60 64 64 63 63 64 66 70 71 71 73 73 74 73 72 71 70 68 66 65 66 65 66 70 71 68 65 61 58 56 55 54 53 52 51 51 53 56 56 57 57 53 49 53 54 51 51 55 56 56 55 54 53 52 51 49 49 50 53 57 58 58 58
62 60 59 58 56 55 54 52 51 50 49 48 50 51 51 52 51 51 51 53 58 58 57 58 58 61 66 67 65 64 64 67 70 69 69 70 71 72 71 70 70 68 65 64 64 65 65 67 70 69 65 63 60 59 58 57 55 53 52 51 50 52 54 55 56 55 52 50 53 53 49 51 55 54 54 55 54 53 51 50 49 48 51 54 56 57 57 57
64 63 61 60 58 57 56 55 53 52 52 51 52 53 53 54 54 54 55 58 63 63 59 60 60 63 68 67 65 64 63 65 68 68 68 68 69 69 67 67 66 65 64 63 62 62 63 66 67 65 63 61 60 59 58 56 55 53 52 51 51 52 53 54 54 51 50 51 53 51 47 50 53 52 53 54 53 52 50 49 48 48 52 54 54 55 56 56
66 65 63 61 59 58 58 57 55 55 54 55 56 56 56 57 56 57 58 60 64 65 61 60 61 63 67 67 65 64 62 62 66 67 65 65 65 63 62 61 61 62 62 61 59 58 61 63 62 60 60 58 57 57 56 55 53 51 51 51 51 51 51 52 52 49 49 50 50 48 46 49 51 51 51 51 51 50 48 47 47 48 51 52 52 55 56 56
68 67 65 63 61 59 59 58 57 57 58 58 58 58 58 58 58 59 60 61 64 65 62 60 60 62 65 65 64 62 59 61 65 63 59 60 60 57 55 55 58 60 59 57 55 54 58 59 57 56 56 54 53 54 53 52 50 50 51 50 49 50 49 49 49 48 47 48 46 45 44 47 48 48 47 47 48 48 46 46 46 47 49 50 52 54 55 55
69 68 67 65 62 60 60 61 60 60 60 60 59 59 58 57 58 59 59 59 62 63 62 61 61 61 62 62 62 60 58 60 63 59 54 56 55 52 51 52 55 57 56 53 51 52 56 55 52 52 52 49 49 50 50 48 47 49 49 48 47 48 47 46 46 46 45 44 42 41 42 44 45 44 44 43 44 45 45 45 45 46 46 48 50 51 51 52
68 68 67 66 64 62 62 63 63 62 62 62 61 59 58 57 58 58 57 59 61 62 62 61 61 61 60 60 60 59 58 58 58 55 52 51 50 48 48 51 53 54 52 49 49 52 52 50 49 48 46 45 48 49 47 46 46 48 47 45 46 45 44 44 44 44 43 40 39 38 39 41 41 41 41 41 42 44 45 45 44 44 45 47 47 46 46 48
66 65 65 65 65 64 64 65 64 64 64 64 62 60 59 58 59 59 59 61 63 63 62 61 60 60 59 59 58 57 55 54 53 51 49 48 48 47 48 50 51 50 48 46 48 50 48 47 47 45 43 46 49 47 44 45 46 46 43 42 43 42 42 42 42 43 40 36 36 36 37 39 39 39 39 39 41 43 44 44 43 42 43 44 44 43 44 46
63 62 62 64 65 64 65 65 65 65 65 65 64 61 60 60 60 60 62 64 64 62 60 59 58 59 59 59 56 53 51 49 49 48 46 47 47 46 46 47 47 46 44 44 47 48 46 46 44 43 45 48 48 44 43 44 45 42 40 41 41 40 40 40 40 40 36 33 35 35 37 39 38 38 38 39 40 42 43 43 41 40 41 41 42 41 42 42
64 63 63 64 64 65 65 65 64 64 65 65 64 62 61 62 62 63 64 64 62 58 57 57 57 58 59 57 53 50 47 45 45 45 45 46 45 44 44 45 45 44 42 43 47 47 45 44 43 44 47 47 45 43 43 43 42 40 39 39 38 38 38 38 38 37 33 33 36 36 37 39 38 38 38 39 40 41 42 42 41 40 40 40 40 40 39 37
64 64 65 65 65 65 65 64 64 64 65 65 64 64 64 65 65 65 64 62 58 56 56 57 57 58 57 54 49 46 43 42 42 43 44 44 44 43 44 44 44 42 40 43 46 44 41 41 42 44 45 45 43 42 41 41 40 39 37 36 36 36 35 35 36 34 33 35 38 36 36 37 38 38 38 38 40 41 41 41 39 39 38 38 37 36 33 31
63 63 64 64 64 65 64 64 63 64 66 66 66 66 66 65 64 63 61 58 55 55 57 57 57 56 54 51 46 42 40 40 40 41 41 42 43 44 44 43 42 40 40 43 43 40 39 40 41 42 43 42 41 41 40 40 38 37 35 34 34 33 33 34 34 33 33 37 38 35 34 35 36 37 37 37 38 39 38 37 36 36 34 33 32 29 25 22
61 62 62 62 63 64 64 64 64 65 66 67 67 66 64 62 61 60 57 55 55 56 57 57 56 54 51 48 43 40 38 38 39 39 39 40 42 44 44 42 41 40 41 42 42 39 38 39 40 41 42 41 41 41 40 38 36 34 33 31 31 32 33 33 33 32 34 36 35 33 32 33 35 36 36 36 36 36 34 33 34 34 32 30 25 19 15 17
61 61 61 62 63 64 64 64 64 65 66 66 64 61 60 59 58 57 56 55 55 56 58 58 55 51 49 46 42 39 38 37 37 37 37 39 41 43 43 43 41 40 40 40 40 39 38 38 40 41 41 40 40 40 37 35 33 31 29 30 31 32 32 32 31 31 32 33 33 32 31 32 35 35 35 35 35 33 32 32 33 32 29 24 17 13 12 21
61 61 61 62 63 63 64 64 64 63 62 60 58 57 57 57 57 57 56 56 56 57 58 57 53 49 46 44 41 38 37 36 35 35 35 37 40 42 43 42 40 39 39 39 40 39 37 38 40 40 40 39 39 38 35 32 30 28 28 30 31 31 30 29 29 29 30 31 31 30 30 32 34 34 34 34 32 31 30 30 30 29 26 22 21 20 21 30
60 60 61 61 61 61 61 60 59 58 58 57 56 56 57 57 57 57 56 56 56 57 57 55 50 46 44 42 41 38 37 36 34 32 32 35 38 41 42 41 39 38 38 39 39 38 37 38 39 38 38 38 38 36 33 29 28 28 30 31 31 29 28 28 27 27 28 30 30 29 29 31 33 33 33 31 29 28 27 26 27 27 28 29 30 30 32 36
54 55 56 56 56 56 56 55 55 55 55 56 56 57 57 58 57 56 56 56 56 56 55 52 48 44 43 41 40 38 37 35 33 31 31 33 36 39 41 40 37 37 38 38 38 37 38 39 39 38 38 37 36 36 32 28 28 29 31 30 29 29 28 28 27 26 27 28 29 28 29 31 32 33 31 28 26 26 25 25 25 27 30 34 36 39 42 42
49 50 50 51 51 52 53 53 54 54 55 56 57 57 58 58 57 56 56 56 55 54 52 49 45 43 41 40 39 38 37 35 33 31 30 32 35 37 39 39 37 37 37 37 37 37 38 39 38 37 37 36 36 35 31 29 29 30 30 30 29 29 28 27 27 27 27 28 28 28 28 30 32 32 29 27 27 27 26 24 24 27 31 34 35 36 38 41
47 48 49 49 50 51 53 53 54 55 56 56 56 57 57 57 57 56 55 54 52 50 48 46 44 41 39 38 38 37 37 36 34 32 31 32 34 36 38 38 38 38 37 37 37 37 38 39 38 36 35 35 35 34 31 29 29 29 30 30 29 29 28 27 27 27 28 28 29 29 29 30 32 31 29 28 30 30 27 26 27 29 30 30 30 30 33 37
47 48 49 50 51 52 53 54 55 55 55 55 55 56 57 58 57 54 52 50 47 45 44 44 43 41 39 38 37 37 37 37 35 33 32 32 34 36 38 38 38 38 37 37 37 37 37 38 37 35 34 35 34 32 31 29 28 28 29 30 30 29 28 27 27 27 28 29 31 31 31 32 31 30 29 30 32 31 30 31 32 31 27 25 27 31 33 33
45 47 48 49 51 52 52 53 53 53 53 54 55 56 57 57 54 48 45 43 42 43 43 42 41 40 38 38 37 37 37 38 37 34 33 33 34 35 37 38 36 36 36 36 37 37 37 38 37 34 33 34 34 33 32 30 28 28 29 29 29 28 27 27 27 28 29 30 31 33 33 33 32 32 32 32 34 34 35 37 38 35 33 33 33 35 36 35
42 44 46 47 49 49 50 51 51 52 53 54 54 53 52 50 46 41 39 40 41 42 43 42 40 40 39 38 38 38 39 39 38 35 34 34 33 34 36 37 36 36 36 36 36 36 36 37 36 33 32 33 34 33 32 30 28 28 29 29 29 28 27 27 27 28 28 30 31 33 33 34 35 35 35 36 37 38 40 41 41 41 42 43 41 39 40 40
41 43 45 46 48 48 49 50 50 50 50 49 47 46 44 43 41 39 38 39 41 43 43 42 41 41 40 39 40 40 40 39 39 37 35 35 34 35 36 37 37 37 37 37 37 37 37 36 35 33 32 32 33 33 31 30 29 29 29 29 29 28 28 28 28 27 28 30 31 33 34 36 37 37 38 39 40 42 44 42 41 43 44 44 44 42 40 38
42 44 45 46 46 46 47 47 46 45 43 41 40 41 42 42 42 42 40 39 41 43 44 44 43 43 42 41 42 42 41 40 40 38 37 37 36 36 38 38 38 38 39 38 38 38 38 37 35 34 33 32 33 33 32 32 31 29 29 30 30 29 29 28 28 27 28 30 33 34 35 37 38 39 40 41 42 45 47 45 44 45 44 44 42 40 36 32
40 41 42 42 42 41 41 40 39 38 37 38 39 41 42 43 44 44 42 41 42 44 45 45 45 45 44 43 44 43 42 41 40 40 40 39 38 39 40 41 40 40 39 39 39 40 39 38 37 36 34 33 33 33 33 33 31 29 30 31 31 30 30 29 28 28 28 31 34 35 36 39 39 40 41 41 44 48 49 48 47 45 44 43 41 37 34 33
34 35 35 34 34 34 35 35 35 36 37 38 40 42 43 43 44 44 42 41 44 46 47 47 46 46 46 45 45 45 44 42 41 43 43 41 42 43 42 42 42 41 41 40 40 40 40 39 38 37 35 34 34 34 34 34 32 31 30 32 33 32 32 31 30 29 29 31 33 36 38 40 41 41 42 43 46 51 51 50 49 47 44 43 40 38 37 38
28 28 28 29 30 31 33 34 35 36 38 39 40 42 43 43 44 43 41 41 43 45 47 48 48 48 47 47 46 46 45 44 44 45 44 44 45 44 42 42 43 43 43 42 41 41 41 40 39 37 36 35 35 35 35 35 34 32 31 32 33 33 33 33 31 31 31 31 34 36 39 41 42 43 44 46 49 52 53 52 51 50 47 42 40 40 40 42
24 24 25 27 29 31 32 34 35 36 36 37 38 40 41 41 41 40 40 39 40 42 44 45 47 48 48 48 48 47 46 45 45 46 46 47 47 44 42 43 44 44 44 43 42 42 42 41 40 39 38 38 36 36 36 36 35 33 32 32 33 33 34 34 33 32 32 33 34 37 39 42 43 45 46 48 50 53 55 55 54 55 52 45 41 41 43 45
22 23 25 27 28 30 31 32 33 34 34 34 35 37 38 38 37 37 37 37 38 38 39 41 43 45 47 48 49 48 48 47 46 47 48 48 48 46 45 45 45 45 45 44 43 43 43 42 42 41 40 39 38 37 37 36 36 35 34 34 34 34 34 35 34 33 33 34 35 36 38 41 44 46 48 50 51 54 58 59 58 59 58 53 46 43 45 48
21 22 24 26 27 28 29 30 31 31 31 31 32 33 34 34 33 32 33 34 35 35 35 37 39 41 43 46 47 48 49 48 47 49 50 51 50 50 49 49 47 47 46 45 45 44 44 44 43 43 43 41 40 39 39 38 37 37 36 36 35 35 36 36 35 34 34 35 36 37 39 41 44 46 49 51 52 55 58 61 62 62 63 61 54 48 48 50
21 22 23 24 25 26 27 28 28 28 27 27 27 27 29 29 28 28 28 29 31 32 33 34 35 37 41 43 45 46 46 47 49 51 51 52 52 52 53 52 51 50 48 48 47 46 46 45 44 44 45 44 42 41 41 40 39 38 38 38 37 37 36 36 36 36 35 35 36 38 40 42 44 46 48 51 53 55 57 61 64 65 65 65 62 57 53 52
Wind_Direction
271 268 265 262 260 258 256 255 254 253 252 251 251 250 249 248 248 249 249 249 249 249 249 250 250 250 250 251 251 252 253 254 255 256 257 257 258 258 258 259 259 260 261 261 262 262 263 263 263 263 263 264 264 264 264 264 264 264 264 265 265 265 264 263 263 262 262 262 261 260 259 258 258 257 257 257 257 257 258 258 258 259 259 260 261 261 262 263
269 265 262 259 257 255 254 253 253 252 252 252 252 251 250 249 249 249 249 249 249 249 249 250 250 250 250 250 251 251 252 254 255 256 257 257 258 258 259 259 260 260 261 261 262 262 263 263 263 264 264 264 265 265 265 265 265 265 265 266 266 266 265 265 264 263 263 262 262 261 260 259 258 258 257 257 257 257 258 258 258 258 259 260 260 261 262 262
267 263 259 257 254 253 252 251 251 251 251 252 252 252 251 250 250 250 250 250 250 250 250 250 250 250 250 250 250 251 252 253 254 255 256 257 258 259 259 259 260 260 261 261 262 262 262 263 263 264 264 265 265 266 266 266 266 266 267 267 267 267 267 266 265 264 263 262 261 261 260 259 258 258 257 257 257 257 257 258 258 258 259 259 260 261 261 262
264 261 258 254 252 251 251 251 250 250 250 250 251 252 252 252 251 251 251 251 251 251 251 251 251 251 251 251 251 251 252 253 254 255 256 257 258 259 259 259 260 260 260 261 262 262 262 263 264 264 265 266 266 267 267 267 267 267 267 267 267 267 267 266 265 264 263 261 260 259 259 258 258 258 257 257 257 257 257 258 258 259 259 259 260 261 261 262
263 260 258 253 250 249 250 251 251 250 250 250 250 251 251 252 252 252 252 252 252 252 252 252 252 252 252 251 251 252 252 253 254 255 256 257 258 258 259 259 260 260 261 261 262 262 263 263 264 265 266 266 267 268 268 268 268 268 268 268 268 268 267 266 265 264 262 261 259 258 258 257 257 257 256 257 257 257 257 258 258 259 259 259 260 261 261 262
263 260 257 253 249 247 249 250 251 250 251 251 251 251 252 252 252 252 252 252 252 252 252 253 253 253 252 252 252 252 252 253 254 255 256 257 258 258 259 260 260 261 261 261 262 263 263 264 265 266 267 268 268 269 269 268 268 268 268 268 267 267 266 265 264 263 261 260 258 257 257 256 256 255 255 256 256 257 257 257 258 258 258 258 259 260 261 262
263 261 256 252 249 247 248 249 250 250 250 251 252 252 253 253 253 253 253 253 253 253 253 253 254 253 253 253 253 253 253 253 254 255 256 257 258 258 259 259 260 260 261 262 263 263 264 265 266 267 268 269 269 269 268 268 268 269 268 268 267 267 266 264 263 262 261 259 257 256 255 254 254 253 254 254 255 255 256 256 256 256 256 257 258 258 259 261
266 263 258 253 250 248 248 249 250 251 251 251 251 252 253 253 253 253 253 253 254 254 254 254 254 254 254 254 254 254 254 254 255 255 256 257 257 258 258 259 260 260 261 263 263 264 265 266 267 268 269 269 269 269 269 269 269 269 268 267 267 266 265 264 262 261 259 258 256 254 253 252 252 251 252 252 253 253 254 254 254 254 254 255 256 257 258 260
269 266 262 257 253 250 249 249 250 250 251 251 251 252 252 253 253 253 253 254 254 255 255 256 256 255 255 255 255 255 255 255 255 256 256 257 257 258 259 259 260 261 262 263 264 265 265 267 268 269 269 269 269 270 270 270 270 269 268 266 265 263 262 262 261 260 258 257 256 254 253 252 251 250 251 251 251 252 252 252 252 252 253 253 253 254 256 258
270 268 264 260 256 253 251 250 250 251 251 252 252 252 252 252 252 252 253 253 254 254 255 256 256 256 256 256 256 256 256 256 256 257 257 257 258 258 259 260 260 261 262 263 264 265 266 267 268 268 269 269 270 270 270 269 268 267 266 264 262 260 260 261 260 258 257 256 255 254 252 252 251 250 250 251 250 250 251 251 251 251 250 250 251 253 255 255
268 267 265 262 258 256 253 252 251 251 251 252 252 252 252 252 252 253 253 253 253 253 254 254 255 255 256 256 256 256 257 257 257 257 257 258 258 259 260 260 261 262 262 263 264 265 266 267 268 268 269 269 269 269 269 268 267 265 263 262 260 259 259 259 258 257 256 256 255 253 253 253 251 250 250 250 250 249 250 249 249 249 248 249 250 252 252 250
265 265 264 262 259 257 255 253 253 252 252 252 252 253 253 252 252 253 253 253 254 254 254 255 255 255 256 256 256 257 258 258 258 258 258 259 260 260 261 261 262 262 263 264 265 266 267 267 268 269 270 270 270 270 268 267 265 263 261 260 259 258 258 258 257 257 256 256 255 253 253 254 253 251 250 250 250 249 249 248 248 247 248 249 250 251 251 248
263 263 262 261 259 257 256 254 253 253 252 253 253 253 253 253 252 252 253 253 254 254 255 255 256 256 257 257 257 258 258 258 259 259 259 260 260 261 261 261 262 263 264 265 266 267 268 268 269 271 271 271 271 270 268 266 264 262 260 259 258 258 257 257 256 257 257 256 255 253 253 254 254 252 251 251 250 250 249 248 248 248 249 249 250 251 250 249
261 261 261 260 259 258 256 255 254 254 253 253 253 253 253 254 253 253 253 253 254 254 255 255 256 256 257 257 257 257 258 258 259 260 260 260 260 261 261 262 263 264 265 266 267 267 268 269 270 271 271 271 271 269 267 266 264 262 260 258 258 257 257 256 256 257 256 255 255 254 252 253 254 252 251 250 250 250 250 250 249 249 249 249 250 251 250 249
259 260 260 260 259 258 257 257 257 256 255 254 254 254 254 254 255 254 254 254 254 255 255 255 256 256 257 257 257 257 258 259 259 260 260 260 260 261 262 263 264 265 265 266 267 268 269 270 270 270 270 270 269 268 266 265 263 261 259 257 256 256 257 256 256 256 256 256 256 255 253 252 253 252 251 250 250 250 250 250 251 250 250 250 250 251 251 250
257 259 259 259 259 258 257 258 259 258 257 257 256 256 255 255 255 255 255 255 255 255 255 255 256 256 257 258 257 257 258 260 261 261 261 261 261 262 263 263 264 265 266 267 268 268 269 269 269 269 269 269 268 267 266 264 262 260 258 257 256 256 257 257 256 256 256 257 257 255 253 252 253 254 252 251 251 251 251 251 252 251 251 251 252 252 252 251
255 257 259 259 258 258 257 258 259 260 260 260 259 259 258 257 256 255 255 255 254 255 255 255 256 257 258 259 259 258 259 260 261 262 262 262 262 263 263 264 264 265 266 267 267 268 268 268 268 269 269 268 268 267 265 263 261 259 258 258 257 257 258 258 257 256 257 257 257 256 253 252 252 253 251 250 251 251 251 251 252 252 252 252 252 252 252 251
253 255 257 258 258 258 258 258 258 259 261 263 263 261 258 257 256 255 255 255 255 255 256 256 257 258 259 259 259 260 260 261 262 263 263 263 264 264 264 264 265 265 265 266 266 267 267 267 268 269 269 268 267 265 264 263 261 260 259 258 258 258 259 259 257 256 256 256 257 255 252 250 250 251 250 248 249 249 249 250 250 251 250 249 250 251 251 250
252 253 255 256 258 258 257 257 257 258 260 262 263 261 258 256 256 256 255 255 255 255 256 257 257 258 259 259 260 261 261 262 263 263 264 265 265 265 265 265 265 265 265 265 265 265 266 266 267 268 267 266 265 265 264 264 263 262 260 258 258 258 258 259 257 255 254 255 255 254 251 249 249 250 250 248 248 248 249 249 249 248 247 246 246 248 249 249
251 252 253 254 256 256 256 256 256 257 258 260 261 260 258 256 256 256 256 256 255 256 256 257 257 258 259 259 261 262 263 264 264 265 265 266 267 267 266 266 266 265 265 264 264 265 265 266 266 265 264 264 264 264 265 265 264 263 260 258 257 257 257 258 257 255 253 253 254 253 250 248 248 248 249 248 248 249 250 250 249 248 246 245 245 246 247 248
250 251 251 252 253 254 255 255 255 256 256 257 258 258 258 257 257 257 257 257 258 257 257 257 257 258 259 260 261 263 264 265 265 266 267 268 268 268 267 267 267 266 264 264 264 264 264 264 263 263 262 263 264 264 265 265 264 263 261 258 256 257 256 256 257 256 253 252 253 252 250 248 248 247 248 249 250 251 251 251 249 247 246 244 244 245 246 247
249 250 251 251 252 253 253 254 255 255 256 256 256 257 258 258 258 258 258 260 259 258 258 258 259 261 262 262 263 264 266 268 267 267 268 269 269 268 268 268 266 265 264 263 263 262 262 261 260 261 262 263 264 264 264 263 262 262 261 259 257 257 256 256 256 256 254 252 252 251 249 248 248 247 249 249 249 249 249 248 247 246 245 243 243 244 245 246
248 249 250 251 252 252 253 254 254 255 255 256 256 257 259 259 259 260 261 262 261 260 259 261 263 264 266 266 266 267 269 270 270 269 268 268 267 267 267 266 265 264 263 262 261 260 260 259 259 261 262 263 263 263 262 261 261 261 261 260 258 256 256 256 255 255 255 253 251 250 248 248 248 247 248 248 248 247 247 247 246 245 244 244 244 244 245 245
247 248 250 251 252 253 253 253 254 255 255 256 257 258 260 261 261 262 262 263 264 263 263 264 266 267 268 270 271 271 271 272 272 270 268 267 266 266 265 265 264 263 262 260 259 259 258 258 259 260 261 261 261 260 260 259 259 260 260 259 257 255 255 255 255 255 254 253 251 250 247 247 247 246 246 247 248 248 247 247 246 244 243 243 243 243 242 243
246 248 249 250 251 253 254 253 254 255 255 257 258 260 261 261 262 262 262 263 265 266 266 266 267 269 271 272 273 273 274 274 272 270 269 268 267 266 266 265 263 260 259 258 257 257 256 257 258 258 259 259 259 259 258 258 258 259 258 256 255 254 254 254 255 254 252 252 252 251 247 246 247 246 246 247 247 247 246 245 244 242 242 243 242 241 241 242
245 247 249 251 251 252 253 254 254 256 257 258 259 260 261 261 262 262 262 263 265 267 268 267 268 269 271 273 274 275 275 274 271 270 270 268 266 265 264 262 260 258 257 256 256 255 255 255 256 256 257 258 257 257 257 257 258 257 255 254 254 254 254 255 255 254 252 252 252 251 248 246 246 246 245 246 246 247 245 243 242 241 241 241 241 241 243 245
244 246 249 251 252 252 253 254 255 256 258 259 259 260 260 261 262 262 262 263 265 267 269 270 270 270 270 272 274 275 274 272 271 270 267 264 264 264 262 260 258 257 256 255 255 253 253 254 254 255 257 257 256 255 256 256 255 253 252 252 253 253 254 255 255 254 253 252 252 250 248 247 246 246 245 244 245 245 244 241 240 239 238 238 240 242 244 247
243 245 248 250 251 252 252 254 255 257 258 259 260 261 261 262 262 262 263 265 267 269 271 271 271 271 271 272 274 274 272 270 269 267 265 264 264 262 259 256 255 255 255 255 253 252 252 253 253 253 254 254 253 253 253 254 252 251 251 251 252 253 255 254 254 253 252 251 249 248 247 247 246 245 244 242 242 242 242 240 238 237 236 237 240 242 244 247
244 246 248 250 251 252 252 254 255 256 258 259 261 262 263 263 263 265 266 268 269 270 271 271 271 271 271 272 273 273 271 268 266 265 265 264 262 258 255 253 253 254 254 253 252 250 250 249 249 250 250 250 250 251 252 252 250 250 251 252 253 254 254 253 252 252 251 250 248 245 245 245 244 243 242 240 239 239 240 240 238 236 237 238 240 241 243 246
245 247 248 250 251 251 252 254 255 257 258 259 261 263 263 264 265 267 268 269 270 270 270 270 270 271 272 274 273 271 268 265 264 265 265 263 260 258 255 254 253 253 252 250 249 248 245 245 246 246 247 247 249 250 250 250 250 250 250 251 252 252 252 251 251 251 250 248 246 242 241 242 241 239 239 237 236 237 237 238 237 236 236 237 239 240 242 246
246 247 248 249 250 250 252 254 255 256 257 259 261 263 264 265 267 268 269 269 269 269 269 269 270 271 273 273 271 268 264 262 263 265 263 261 258 256 253 251 250 249 248 246 246 245 244 243 243 244 245 248 249 250 250 250 250 250 250 251 251 251 250 250 250 249 247 245 243 239 238 240 239 238 236 235 235 235 235 236 235 234 234 235 237 239 242 246
245 246 247 248 250 251 252 253 254 256 257 259 261 263 265 267 268 267 267 267 267 267 268 269 271 272 272 271 268 264 261 261 263 263 261 259 256 252 249 248 248 248 246 246 246 244 243 243 243 244 246 248 250 250 250 250 250 249 249 250 250 250 250 249 248 247 244 242 241 237 236 239 239 238 236 235 235 235 235 236 236 236 236 236 238 240 244 248
245 246 247 248 250 251 252 253 254 256 258 260 263 265 267 266 265 264 265 265 266 267 269 270 271 271 271 269 264 260 259 260 262 261 259 257 253 250 249 247 247 246 244 244 244 242 240 240 241 243 246 248 250 250 249 249 249 250 250 251 251 250 249 247 246 244 242 242 241 238 236 237 239 238 237 235 235 235 236 237 236 236 236 237 239 241 245 249
245 246 247 248 249 251 252 253 255 257 260 262 264 265 264 263 262 263 264 265 266 268 269 270 270 270 268 265 260 256 257 258 259 259 258 254 251 250 248 247 244 242 240 240 240 238 237 238 239 241 243 245 247 248 248 248 249 251 252 252 251 249 247 245 243 242 242 243 243 240 236 235 236 237 235 235 235 234 233 232 232 232 231 232 234 236 241 242
246 247 248 248 250 252 254 255 257 260 261 262 262 261 260 260 262 263 264 266 267 268 269 269 268 268 265 260 256 255 256 257 257 257 255 251 249 248 246 245 243 239 237 237 238 236 235 236 239 240 242 244 246 247 248 249 250 252 253 252 250 247 246 245 244 243 243 244 244 241 237 234 233 234 234 233 233 231 228 226 226 227 227 224 215 199 208 225
247 248 249 250 252 254 256 258 259 259 259 258 258 258 259 261 262 264 265 267 267 268 268 268 267 265 260 256 254 253 254 255 255 254 251 248 247 246 245 244 242 238 234 233 235 235 234 236 239 241 243 245 247 248 248 249 250 251 250 247 246 245 244 245 245 244 243 243 242 240 236 233 231 231 231 231 230 228 224 221 222 222 216 200 180 177 198 220
248 249 250 252 253 255 256 256 256 256 256 256 257 259 260 262 263 265 266 267 267 267 268 267 265 260 255 252 252 252 252 253 253 251 249 246 245 245 243 241 239 235 231 231 232 233 233 234 236 239 242 244 247 248 247 246 247 247 246 244 244 243 241 241 241 241 241 240 239 237 233 230 229 228 228 227 225 223 220 216 216 214 204 188 179 187 203 216
247 248 249 250 252 253 253 253 253 254 255 256 258 260 262 263 264 265 266 266 267 267 267 264 260 254 250 249 251 251 251 251 251 249 246 244 245 243 241 239 236 232 230 229 230 231 233 234 234 236 240 242 245 246 243 241 242 244 244 243 242 241 239 238 236 236 236 236 234 233 229 226 226 225 224 220 216 214 211 207 207 206 199 189 187 196 204 210
246 246 247 248 249 250 251 252 253 255 256 258 260 262 263 264 265 265 266 266 266 266 263 259 254 249 247 248 250 252 253 252 251 248 243 241 242 241 238 235 232 229 228 228 230 231 234 236 235 235 239 241 243 244 242 239 240 241 242 241 240 240 238 236 234 231 230 229 228 226 225 225 224 222 218 210 206 206 200 195 196 197 195 192 193 201 210 214
246 246 247 248 249 250 251 253 255 257 258 259 261 262 263 264 265 266 266 266 265 262 257 253 249 246 246 246 248 250 252 252 251 249 243 238 238 238 236 233 229 226 225 226 227 230 233 237 237 236 238 240 242 243 242 241 242 243 243 241 240 239 237 236 233 230 226 224 222 220 219 220 221 218 212 204 202 199 191 185 185 186 186 189 196 205 216 223
246 247 248 249 250 251 253 254 256 258 259 260 262 263 264 265 265 265 265 263 259 255 251 248 247 247 246 246 246 246 249 250 250 249 244 238 235 234 234 232 228 225 224 225 226 227 231 235 236 235 237 239 240 240 240 240 242 244 244 243 241 239 237 236 234 230 226 222 219 217 214 215 216 214 208 203 200 194 185 179 176 173 175 189 205 213 216 224
247 248 250 251 251 253 254 256 257 259 260 262 263 264 265 265 264 262 259 256 253 250 249 247 247 247 246 245 244 243 244 246 247 247 246 241 236 233 233 232 228 224 224 225 226 227 229 233 235 233 235 238 238 237 237 238 240 243 245 244 243 240 237 235 232 229 226 222 219 217 214 212 211 209 204 200 197 191 183 175 169 167 176 192 206 213 213 216
247 248 250 251 252 254 255 257 259 261 262 263 264 265 264 263 261 256 252 251 251 250 250 249 248 247 245 244 243 242 242 243 244 244 244 243 238 234 233 232 228 224 223 224 225 226 228 232 233 232 233 237 237 236 236 237 239 242 243 244 243 241 238 235 232 229 225 222 219 217 215 212 209 206 202 198 196 189 180 174 171 174 183 193 201 208 211 212
247 248 250 252 254 256 258 260 261 263 263 263 263 263 262 261 259 255 251 249 249 250 251 249 248 246 244 242 242 241 240 241 242 240 240 240 238 233 231 230 228 224 222 222 223 224 226 229 231 230 230 235 237 237 236 237 238 239 241 242 241 239 238 235 233 228 223 220 218 216 215 213 210 206 201 198 195 188 180 178 180 183 188 196 201 205 208 211
248 250 252 255 257 259 261 262 262 263 263 262 262 262 261 261 260 258 254 251 250 249 249 248 247 245 243 240 240 240 239 239 239 238 236 236 236 233 229 227 226 224 222 220 221 222 223 226 228 227 226 230 233 235 235 235 236 238 240 241 240 238 237 235 233 228 223 219 216 214 214 213 211 207 203 199 195 188 182 182 185 188 193 199 201 203 206 212
251 253 255 257 258 260 260 261 262 263 263 264 263 263 262 261 260 258 255 253 252 251 249 247 246 245 242 240 238 238 236 235 235 236 234 232 233 232 228 226 225 223 221 220 221 222 222 223 226 225 224 226 229 231 233 234 234 236 239 240 239 237 235 234 231 228 223 220 216 213 212 213 212 208 204 201 196 189 186 185 187 190 196 199 200 201 205 212
250 252 253 255 257 259 261 263 264 266 267 267 267 266 265 263 262 259 255 252 251 250 249 247 245 243 242 239 237 236 234 232 231 233 233 230 229 230 228 226 224 223 221 220 221 223 223 223 225 225 224 225 227 228 231 232 232 233 236 239 238 236 234 232 229 226 223 221 218 214 211 211 212 209 205 202 198 193 190 190 190 193 197 200 202 205 209 213
247 249 252 256 259 261 264 266 268 269 269 269 269 269 268 266 264 263 258 253 249 248 247 246 245 243 241 239 236 234 232 230 228 229 231 230 229 229 228 227 225 224 222 219 219 222 223 223 225 225 225 225 226 227 229 230 230 231 233 236 237 236 234 231 228 225 222 220 219 216 213 211 210 209 206 203 200 196 194 192 193 195 197 199 204 211 216 216
247 251 256 260 263 266 268 270 271 271 271 271 271 270 269 268 266 264 262 257 252 248 245 244 243 241 239 237 235 233 231 228 226 227 228 229 230 229 228 228 227 225 223 221 219 221 223 223 224 225 225 224 224 226 230 231 230 230 230 233 235 236 235 233 229 226 223 221 219 218 216 214 211 209 207 205 202 199 196 194 195 197 198 199 205 212 219 220
254 259 263 266 269 271 274 275 275 275 275 274 272 271 270 268 266 264 262 259 255 250 245 242 240 238 237 235 233 231 229 227 225 225 225 227 228 228 227 228 228 226 224 222 220 221 222 223 224 224 224 224 224 224 228 230 230 229 228 229 232 233 233 232 229 226 224 222 220 218 218 216 214 211 208 207 205 202 200 197 197 198 200 202 207 212 218 219
264 268 271 274 276 277 279 279 279 279 278 276 274 272 270 268 266 263 260 257 254 251 246 241 237 235 233 233 231 229 227 225 224 224 223 224 224 225 225 225 226 226 225 222 220 220 221 222 223 224 224 224 224 223 225 227 228 228 228 227 229 230 231 232 230 227 225 223 221 219 218 218 217 214 211 209 208 206 204 202 200 201 202 206 210 213 217 218
269 272 274 277 279 280 281 281 281 280 279 277 274 273 272 269 266 262 258 254 250 247 244 240 234 230 229 229 228 226 225 224 223 223 223 224 224 224 224 224 223 224 224 222 220 219 219 220 222 225 225 225 224 223 223 224 225 227 228 227 227 228 230 232 231 229 226 225 223 221 220 219 218 216 214 212 211 210 208 206 205 204 205 209 213 216 218 219
Height
10622 10623 10624 10625 10626 10628 10630 10632 10634 10636 10638 10640 10643 10645 10648 10650 10653 10656 10658 10660 10662 10665 10667 10669 10671 10674 10676 10677 10679 10681 10683 10684 10686 10687 10689 10691 10691 10692 10695 10696 10698 10700 10701 10703 10705 10707 10708 10709 10709 10709 10710 10711 10713 10715 10717 10720 10722 10723 10723 10723 10720 10715 10711 10713 10718 10718 10722 10726 10729 10734 10739 10742 10744 10748 10750 10751 10754 10756 10759 10762 10763 10766 10766 10767 10768 10767 10769 10772
10614 10615 10616 10617 10619 10621 10623 10625 10627 10629 10631 10634 10636 10639 10641 10643 10646 10649 10651 10653 10655 10657 10659 10662 10664 10666 10668 10670 10672 10674 10676 10677 10679 10680 10682 10684 10685 10685 10687 10690 10692 10693 10694 10696 10697 10699 10701 10701 10700 10701 10703 10704 10706 10708 10710 10712 10714 10716 10716 10716 10711 10705 10703 10707 10710 10712 10716 10719 10723 10727 10731 10734 10736 10740 10743 10743 10746 10749 10751 10753 10756 10758 10759 10761 10761 10760 10763 10765
10607 10607 10608 10610 10612 10614 10616 10619 10621 10623 10625 10628 10630 10632 10634 10637 10639 10642 10644 10646 10648 10650 10652 10654 10657 10659 10661 10663 10665 10667 10669 10670 10672 10674 10675 10677 10678 10678 10680 10683 10685 10686 10688 10689 10690 10692 10693 10693 10693 10695 10696 10698 10700 10701 10702 10705 10707 10709 10710 10708 10701 10697 10698 10699 10701 10705 10708 10712 10716 10718 10722 10726 10729 10733 10735 10736 10739 10742 10743 10745 10748 10751 10753 10754 10754 10754 10757 10758
10600 10600 10601 10603 10605 10607 10609 10612 10614 10617 10619 10621 10624 10626 10628 10630 10633 10635 10637 10639 10641 10643 10645 10647 10650 10652 10654 10656 10658 10660 10661 10663 10665 10666 10668 10670 10671 10671 10673 10676 10677 10679 10680 10682 10683 10684 10685 10686 10686 10688 10690 10691 10693 10694 10695 10698 10700 10702 10702 10698 10692 10691 10691 10689 10693 10698 10699 10704 10709 10710 10714 10718 10722 10725 10727 10730 10731 10733 10736 10738 10741 10744 10746 10746 10746 10748 10750 10752
10593 10594 10595 10596 10598 10600 10603 10605 10608 10611 10613 10615 10618 10620 10622 10624 10626 10628 10630 10632 10634 10636 10638 10640 10643 10645 10647 10649 10651 10653 10654 10656 10658 10659 10661 10662 10663 10663 10666 10668 10669 10671 10673 10675 10676 10677 10677 10678 10680 10681 10683 10685 10687 10687 10688 10691 10693 10695 10693 10688 10685 10684 10681 10680 10686 10689 10690 10697 10701 10702 10707 10712 10714 10717 10720 10723 10724 10726 10729 10732 10735 10737 10738 10739 10740 10741 10743 10746
10587 10587 10588 10590 10592 10594 10597 10599 10602 10604 10607 10609 10612 10614 10616 10618 10620 10622 10624 10626 10627 10629 10631 10633 10636 10638 10640 10642 10644 10646 10647 10649 10651 10651 10653 10655 10655 10656 10658 10660 10662 10663 10665 10667 10668 10669 10670 10671 10672 10674 10676 10678 10680 10680 10680 10684 10686 10686 10684 10678 10676 10676 10671 10673 10679 10680 10683 10689 10692 10696 10701 10704 10705 10708 10713 10715 10716 10719 10722 10725 10728 10729 10730 10732 10734 10735 10737 10742
10581 10582 10582 10584 10586 10588 10590 10593 10595 10598 10600 10603 10605 10608 10610 10612 10614 10616 10618 10619 10621 10623 10625 10627 10629 10631 10633 10635 10637 10638 10639 10642 10643 10643 10645 10647 10648 10648 10650 10653 10654 10656 10658 10659 10661 10662 10662 10664 10665 10667 10669 10671 10672 10671 10673 10676 10678 10678 10674 10669 10669 10669 10664 10666 10672 10672 10676 10680 10682 10689 10694 10694 10696 10701 10706 10707 10709 10713 10715 10717 10720 10721 10722 10725 10728 10730 10733 10740
10576 10576 10577 10578 10580 10582 10584 10587 10589 10592 10594 10596 10599 10601 10604 10606 10608 10610 10611 10613 10615 10616 10618 10620 10622 10624 10626 10627 10629 10631 10632 10635 10635 10635 10638 10639 10639 10641 10643 10645 10647 10648 10650 10651 10653 10654 10655 10656 10658 10660 10662 10663 10663 10663 10665 10669 10671 10668 10664 10662 10663 10663 10657 10658 10665 10665 10668 10671 10672 10681 10685 10684 10687 10695 10699 10700 10703 10705 10706 10709 10711 10713 10716 10719 10723 10724 10729 10738
10571 10571 10572 10573 10574 10576 10578 10580 10583 10585 10588 10590 10592 10595 10597 10599 10601 10603 10605 10607 10609 10610 10612 10614 10615 10617 10619 10620 10622 10623 10625 10627 10627 10627 10629 10631 10632 10633 10635 10637 10639 10641 10642 10643 10645 10646 10647 10650 10651 10653 10653 10654 10655 10655 10658 10660 10661 10659 10656 10656 10656 10655 10650 10651 10657 10657 10659 10662 10664 10673 10676 10674 10681 10690 10692 10693 10697 10697 10699 10702 10703 10706 10709 10713 10716 10718 10725 10735
10566 10566 10567 10568 10569 10571 10572 10574 10576 10579 10581 10584 10586 10588 10590 10593 10595 10597 10599 10601 10602 10604 10606 10607 10608 10610 10612 10613 10614 10615 10618 10619 10618 10619 10620 10623 10624 10626 10628 10629 10631 10633 10634 10635 10636 10638 10641 10643 10644 10644 10644 10646 10647 10647 10650 10651 10651 10651 10649 10649 10648 10646 10644 10644 10649 10649 10651 10655 10657 10664 10666 10667 10677 10685 10686 10686 10689 10690 10692 10694 10696 10699 10702 10705 10709 10713 10722 10730
10561 10561 10562 10563 10564 10565 10567 10568 10570 10573 10575 10577 10579 10582 10584 10586 10589 10591 10593 10594 10596 10597 10598 10600 10601 10602 10604 10605 10606 10609 10611 10610 10610 10611 10612 10615 10617 10618 10620 10622 10624 10625 10626 10626 10628 10631 10634 10635 10635 10636 10637 10638 10638 10638 10641 10641 10642 10643 10642 10641 10639 10639 10639 10638 10640 10640 10644 10649 10650 10655 10659 10662 10672 10677 10678 10678 10681 10683 10684 10686 10688 10691 10693 10699 10706 10711 10717 10723
10555 10556 10557 10558 10559 10560 10562 10563 10565 10567 10569 10571 10573 10575 10578 10580 10582 10584 10586 10587 10589 10590 10591 10593 10594 10595 10596 10597 10600 10602 10602 10601 10602 10602 10605 10607 10609 10610 10612 10613 10615 10615 10616 10618 10622 10625 10626 10627 10627 10628 10629 10629 10628 10630 10633 10632 10633 10635 10635 10634 10631 10633 10632 10630 10632 10633 10639 10643 10642 10649 10655 10658 10665 10668 10670 10671 10673 10674 10675 10678 10679 10681 10687 10696 10703 10706 10711 10715
10550 10551 10552 10553 10554 10555 10557 10558 10560 10562 10563 10565 10567 10569 10572 10574 10576 10578 10579 10580 10582 10583 10584 10586 10586 10588 10588 10589 10594 10595 10592 10593 10593 10594 10598 10600 10600 10601 10602 10604 10606 10607 10608 10611 10615 10617 10618 10618 10619 10620 10620 10619 10620 10623 10624 10624 10625 10627 10628 10627 10624 10626 10625 10622 10625 10628 10633 10634 10634 10644 10653 10654 10657 10659 10662 10664 10665 10665 10667 10669 10671 10676 10685 10694 10698 10700 10704 10706
10545 10546 10547 10547 10549 10550 10551 10553 10555 10556 10558 10560 10562 10564 10566 10568 10570 10571 10573 10574 10575 10576 10577 10578 10579 10580 10579 10580 10587 10587 10584 10585 10585 10587 10590 10591 10591 10591 10594 10597 10599 10599 10600 10603 10607 10608 10609 10610 10611 10611 10611 10611 10613 10614 10615 10616 10618 10619 10621 10620 10618 10619 10617 10615 10620 10623 10625 10626 10629 10640 10649 10650 10648 10650 10654 10656 10656 10657 10658 10661 10665 10673 10682 10689 10692 10694 10695 10696
10539 10540 10541 10542 10543 10544 10546 10548 10549 10551 10553 10554 10557 10559 10561 10563 10564 10565 10567 10567 10568 10569 10570 10571 10571 10572 10571 10571 10579 10580 10576 10577 10578 10580 10581 10581 10582 10584 10587 10590 10590 10591 10592 10596 10599 10600 10602 10603 10602 10602 10603 10604 10605 10606 10608 10610 10610 10611 10613 10613 10612 10612 10609 10609 10616 10617 10617 10620 10625 10635 10644 10644 10641 10641 10647 10649 10648 10649 10651 10655 10660 10669 10678 10684 10687 10686 10686 10687
10533 10535 10536 10537 10538 10539 10540 10542 10544 10545 10547 10549 10552 10554 10556 10558 10559 10559 10560 10561 10562 10562 10562 10563 10563 10565 10564 10564 10570 10572 10571 10571 10570 10572 10573 10572 10574 10578 10581 10582 10582 10583 10585 10588 10591 10593 10595 10594 10593 10594 10595 10596 10597 10599 10601 10602 10602 10604 10606 10606 10606 10607 10603 10604 10609 10610 10612 10616 10621 10630 10638 10638 10635 10634 10640 10642 10641 10643 10646 10650 10656 10665 10673 10679 10681 10678 10677 10679
10527 10529 10530 10531 10532 10533 10535 10537 10538 10540 10541 10544 10547 10549 10550 10552 10552 10553 10553 10554 10555 10555 10555 10556 10557 10558 10557 10558 10562 10565 10566 10565 10563 10564 10564 10564 10567 10571 10573 10574 10575 10576 10578 10581 10583 10585 10586 10586 10585 10587 10588 10588 10589 10591 10593 10593 10594 10598 10601 10601 10601 10601 10598 10598 10602 10605 10609 10612 10616 10624 10630 10632 10629 10627 10631 10634 10633 10636 10640 10645 10653 10661 10668 10674 10674 10669 10668 10670
10521 10523 10524 10525 10526 10528 10529 10531 10533 10534 10536 10539 10542 10543 10544 10544 10545 10546 10547 10547 10547 10548 10549 10550 10551 10552 10550 10552 10555 10557 10560 10559 10557 10557 10556 10557 10560 10564 10565 10566 10568 10568 10570 10573 10575 10576 10578 10578 10578 10580 10580 10580 10581 10583 10584 10585 10588 10592 10596 10596 10595 10595 10593 10591 10594 10600 10604 10607 10611 10617 10622 10624 10622 10619 10622 10624 10625 10629 10633 10640 10649 10655 10661 10666 10664 10659 10658 10661
10515 10517 10518 10519 10521 10522 10524 10525 10527 10529 10531 10534 10536 10537 10537 10537 10537 10539 10540 10540 10541 10542 10543 10544 10545 10545 10544 10545 10547 10550 10552 10552 10551 10551 10549 10550 10553 10555 10556 10558 10559 10560 10563 10566 10566 10568 10570 10571 10572 10573 10571 10570 10573 10575 10578 10580 10583 10586 10588 10590 10589 10588 10587 10583 10586 10593 10598 10602 10605 10608 10613 10616 10614 10612 10613 10616 10619 10623 10628 10636 10644 10648 10652 10657 10654 10649 10649 10652
10509 10510 10512 10513 10515 10517 10518 10520 10521 10523 10526 10529 10530 10530 10530 10530 10531 10533 10534 10534 10534 10536 10538 10538 10538 10538 10537 10537 10541 10543 10544 10546 10545 10543 10543 10543 10544 10547 10548 10549 10551 10553 10555 10556 10558 10560 10563 10566 10566 10563 10560 10562 10566 10569 10572 10575 10577 10579 10581 10582 10581 10581 10579 10576 10579 10586 10592 10597 10598 10599 10606 10608 10607 10605 10605 10609 10615 10620 10626 10633 10639 10641 10645 10647 10644 10640 10641 10645
10502 10504 10506 10507 10509 10511 10512 10514 10515 10517 10520 10523 10524 10524 10524 10525 10526 10528 10528 10528 10528 10530 10532 10531 10531 10532 10529 10530 10535 10537 10538 10539 10537 10535 10537 10536 10536 10538 10539 10541 10543 10544 10545 10547 10551 10554 10556 10559 10556 10551 10552 10556 10561 10564 10567 10570 10570 10571 10572 10573 10574 10574 10571 10571 10574 10578 10585 10592 10591 10592 10599 10601 10599 10598 10599 10606 10613 10617 10623 10628 10632 10634 10638 10638 10634 10632 10634 10639
10495 10497 10499 10501 10503 10505 10506 10507 10509 10511 10514 10516 10517 10517 10518 10519 10521 10522 10523 10523 10521 10522 10524 10523 10526 10526 10521 10523 10529 10532 10533 10531 10527 10529 10530 10529 10528 10528 10530 10533 10534 10534 10537 10541 10544 10546 10548 10549 10544 10542 10547 10551 10555 10559 10561 10562 10563 10563 10564 10566 10568 10566 10565 10566 10569 10571 10579 10587 10583 10584 10592 10594 10591 10593 10597 10603 10608 10612 10617 10620 10624 10627 10630 10629 10625 10626 10629 10633
10488 10491 10493 10494 10497 10498 10500 10501 10503 10504 10507 10509 10510 10511 10512 10513 10515 10517 10519 10516 10510 10513 10518 10518 10522 10520 10513 10516 10522 10526 10528 10522 10518 10521 10522 10520 10519 10519 10522 10525 10525 10526 10530 10533 10536 10538 10540 10538 10534 10537 10543 10546 10549 10552 10553 10554 10556 10557 10557 10559 10560 10559 10559 10560 10562 10566 10574 10578 10575 10578 10587 10587 10584 10589 10594 10597 10601 10606 10611 10614 10618 10621 10622 10620 10619 10621 10624 10627
10481 10483 10486 10488 10490 10492 10493 10494 10496 10498 10500 10502 10503 10505 10506 10507 10509 10511 10512 10508 10500 10504 10513 10514 10515 10512 10506 10510 10515 10518 10519 10515 10510 10511 10512 10511 10510 10512 10515 10517 10518 10520 10522 10524 10527 10530 10530 10527 10529 10534 10537 10539 10542 10543 10545 10547 10549 10551 10551 10552 10552 10552 10554 10553 10557 10564 10568 10568 10568 10574 10581 10579 10579 10585 10589 10592 10596 10601 10606 10609 10612 10614 10613 10612 10614 10616 10617 10619
10474 10476 10478 10481 10484 10486 10486 10487 10489 10490 10492 10494 10496 10498 10500 10501 10503 10503 10503 10501 10493 10495 10505 10509 10508 10505 10500 10504 10507 10508 10512 10509 10500 10499 10504 10503 10503 10506 10509 10510 10512 10512 10513 10515 10519 10523 10521 10520 10524 10528 10529 10533 10534 10536 10538 10540 10543 10545 10544 10544 10545 10546 10548 10549 10552 10559 10561 10560 10563 10569 10575 10573 10574 10580 10584 10587 10591 10595 10600 10604 10605 10606 10606 10607 10608 10608 10610 10613
10466 10469 10471 10474 10477 10479 10479 10480 10481 10482 10484 10487 10489 10491 10493 10494 10496 10495 10495 10494 10489 10488 10495 10501 10502 10500 10496 10496 10498 10500 10504 10499 10489 10492 10498 10495 10495 10500 10502 10503 10503 10502 10506 10509 10513 10516 10513 10513 10519 10522 10523 10527 10528 10529 10531 10534 10537 10538 10536 10538 10540 10541 10543 10545 10548 10552 10554 10556 10560 10565 10568 10568 10570 10576 10580 10583 10586 10589 10594 10597 10598 10600 10601 10602 10602 10603 10606 10610
10459 10461 10465 10467 10470 10472 10473 10472 10473 10475 10477 10479 10482 10484 10485 10487 10487 10487 10488 10487 10483 10482 10487 10492 10494 10493 10491 10490 10490 10493 10494 10488 10481 10486 10490 10487 10489 10494 10495 10496 10494 10494 10499 10504 10508 10508 10505 10509 10515 10516 10519 10522 10522 10522 10525 10529 10531 10529 10530 10534 10535 10536 10539 10541 10544 10547 10549 10553 10557 10560 10562 10564 10567 10572 10576 10579 10581 10583 10587 10590 10592 10594 10596 10597 10597 10601 10605 10608
10452 10455 10458 10461 10462 10465 10466 10465 10466 10468 10470 10471 10474 10476 10478 10480 10479 10479 10480 10479 10477 10478 10481 10484 10485 10485 10485 10483 10483 10484 10484 10481 10477 10478 10482 10482 10485 10488 10488 10487 10487 10489 10494 10500 10501 10499 10501 10506 10509 10511 10515 10516 10514 10516 10520 10523 10522 10522 10526 10530 10530 10532 10535 10537 10539 10540 10544 10549 10552 10555 10557 10560 10564 10567 10570 10573 10576 10577 10579 10583 10587 10589 10591 10592 10595 10600 10603 10606
10445 10448 10452 10454 10455 10458 10458 10457 10459 10462 10462 10464 10466 10469 10471 10471 10471 10471 10472 10470 10470 10473 10475 10476 10477 10476 10476 10476 10476 10476 10475 10474 10472 10472 10476 10477 10478 10481 10481 10480 10482 10486 10491 10494 10492 10493 10498 10501 10503 10507 10510 10507 10506 10511 10516 10516 10515 10518 10523 10525 10526 10529 10530 10532 10534 10535 10540 10545 10548 10550 10553 10555 10559 10562 10565 10568 10570 10572 10573 10577 10581 10585 10588 10590 10594 10598 10600 10603
10438 10442 10446 10446 10447 10449 10450 10451 10453 10455 10455 10456 10458 10461 10463 10463 10463 10464 10463 10462 10464 10467 10469 10469 10470 10468 10467 10467 10469 10468 10468 10468 10467 10469 10471 10470 10471 10474 10475 10476 10479 10482 10486 10487 10485 10487 10493 10495 10499 10502 10501 10499 10502 10508 10510 10509 10511 10516 10519 10520 10522 10524 10525 10527 10530 10531 10537 10541 10542 10545 10548 10549 10553 10556 10559 10562 10564 10567 10569 10572 10577 10581 10585 10588 10591 10595 10598 10601
10432 10436 10438 10438 10439 10441 10443 10445 10447 10448 10448 10448 10450 10453 10454 10455 10455 10456 10454 10454 10458 10461 10461 10462 10462 10460 10459 10459 10461 10461 10462 10463 10463 10464 10464 10464 10466 10469 10470 10472 10474 10477 10481 10480 10478 10482 10488 10491 10494 10495 10493 10495 10499 10503 10505 10505 10508 10511 10514 10515 10517 10519 10521 10524 10525 10528 10533 10535 10535 10540 10543 10545 10548 10551 10554 10557 10560 10563 10565 10568 10573 10577 10581 10585 10588 10592 10596 10600
10426 10429 10429 10430 10432 10433 10436 10438 10440 10440 10440 10441 10443 10445 10446 10447 10447 10446 10446 10448 10453 10455 10453 10453 10453 10452 10451 10452 10453 10455 10456 10458 10458 10458 10458 10459 10461 10463 10464 10466 10469 10473 10476 10474 10473 10479 10485 10487 10489 10489 10489 10492 10495 10498 10500 10501 10503 10506 10509 10511 10513 10515 10518 10520 10521 10525 10528 10528 10529 10535 10539 10541 10543 10546 10549 10553 10555 10559 10562 10566 10570 10574 10578 10582 10586 10591 10596 10601
10419 10420 10421 10424 10425 10426 10428 10431 10433 10433 10432 10434 10436 10437 10438 10439 10437 10437 10439 10444 10447 10446 10445 10445 10445 10444 10444 10444 10447 10449 10451 10452 10452 10451 10453 10454 10456 10457 10459 10462 10465 10468 10470 10468 10470 10476 10480 10481 10483 10484 10485 10488 10490 10492 10494 10496 10499 10502 10505 10508 10510 10512 10514 10515 10517 10520 10522 10522 10524 10531 10535 10537 10539 10541 10545 10549 10551 10555 10559 10564 10567 10571 10576 10581 10586 10591 10596 10600
10411 10413 10415 10418 10418 10419 10421 10424 10426 10426 10425 10427 10428 10429 10429 10429 10429 10430 10434 10437 10439 10438 10436 10437 10437 10437 10437 10438 10440 10444 10445 10446 10446 10446 10447 10449 10450 10452 10454 10457 10459 10462 10463 10464 10466 10471 10474 10476 10478 10479 10481 10483 10485 10487 10490 10494 10497 10499 10502 10505 10506 10508 10509 10511 10513 10516 10517 10518 10522 10527 10531 10534 10535 10537 10541 10544 10547 10551 10556 10560 10564 10568 10573 10579 10585 10590 10595 10598
10403 10406 10409 10411 10411 10412 10414 10417 10418 10418 10418 10419 10421 10421 10421 10421 10423 10425 10427 10430 10431 10430 10428 10428 10430 10431 10431 10432 10435 10438 10439 10440 10441 10441 10442 10443 10445 10446 10448 10451 10454 10457 10459 10461 10463 10466 10470 10472 10473 10474 10476 10479 10480 10483 10487 10491 10494 10496 10499 10500 10501 10503 10505 10507 10510 10512 10514 10515 10519 10523 10528 10530 10531 10533 10537 10540 10543 10547 10552 10556 10560 10565 10571 10577 10582 10587 10591 10593
10397 10399 10402 10403 10404 10405 10407 10409 10411 10411 10411 10412 10413 10414 10414 10415 10417 10418 10420 10423 10423 10422 10420 10420 10423 10425 10425 10426 10429 10432 10433 10434 10435 10436 10437 10438 10439 10440 10443 10446 10449 10452 10455 10457 10458 10462 10466 10467 10468 10470 10473 10475 10477 10480 10485 10488 10491 10493 10494 10494 10496 10498 10501 10504 10506 10509 10510 10512 10515 10519 10523 10525 10527 10530 10532 10535 10539 10543 10548 10553 10558 10563 10567 10571 10574 10576 10581 10584
10390 10392 10395 10396 10397 10398 10400 10402 10403 10404 10404 10405 10406 10406 10407 10408 10410 10411 10414 10415 10415 10414 10413 10413 10416 10419 10420 10421 10423 10426 10427 10428 10430 10431 10432 10434 10434 10435 10437 10441 10445 10448 10450 10452 10454 10457 10461 10461 10463 10466 10469 10471 10474 10477 10481 10484 10487 10488 10488 10489 10492 10495 10497 10499 10502 10504 10507 10509 10511 10515 10519 10521 10523 10526 10528 10532 10536 10540 10545 10551 10555 10558 10561 10562 10562 10563 10568 10572
10384 10386 10388 10390 10391 10392 10394 10395 10396 10397 10398 10398 10399 10399 10400 10401 10403 10405 10407 10407 10407 10407 10406 10406 10410 10412 10414 10416 10418 10420 10422 10423 10425 10426 10428 10429 10430 10430 10432 10436 10440 10443 10445 10448 10450 10453 10455 10456 10459 10463 10464 10467 10470 10473 10477 10481 10482 10483 10484 10486 10489 10491 10493 10495 10498 10500 10502 10505 10508 10511 10514 10517 10519 10522 10525 10529 10533 10537 10542 10547 10550 10553 10555 10556 10554 10554 10557 10562
10377 10380 10382 10384 10385 10386 10387 10388 10389 10390 10391 10392 10392 10393 10393 10394 10396 10398 10399 10399 10399 10399 10398 10399 10402 10406 10409 10412 10414 10415 10417 10418 10421 10422 10423 10424 10425 10426 10428 10431 10435 10438 10440 10444 10447 10450 10450 10451 10456 10459 10461 10464 10466 10469 10473 10476 10478 10479 10480 10483 10485 10487 10489 10492 10494 10496 10498 10501 10503 10507 10510 10513 10515 10518 10522 10526 10529 10533 10537 10542 10546 10549 10552 10554 10555 10556 10557 10560
10372 10375 10376 10377 10379 10379 10380 10382 10382 10383 10384 10385 10386 10386 10386 10386 10388 10390 10391 10391 10392 10391 10391 10393 10396 10400 10404 10407 10409 10411 10412 10413 10416 10418 10419 10420 10420 10421 10423 10427 10430 10433 10436 10440 10443 10445 10447 10448 10452 10456 10459 10461 10463 10466 10470 10472 10474 10476 10477 10479 10481 10483 10486 10489 10491 10493 10495 10497 10499 10502 10506 10509 10511 10515 10519 10522 10525 10529 10533 10538 10542 10545 10549 10554 10558 10558 10557 10558
10367 10369 10370 10371 10372 10372 10374 10375 10375 10376 10378 10379 10379 10379 10379 10378 10379 10383 10384 10384 10384 10384 10385 10387 10390 10394 10398 10402 10404 10406 10407 10408 10410 10413 10415 10416 10416 10417 10419 10422 10426 10429 10433 10436 10438 10441 10443 10444 10448 10452 10456 10457 10460 10463 10466 10468 10470 10472 10473 10475 10477 10480 10483 10485 10488 10490 10491 10493 10496 10498 10502 10504 10508 10512 10516 10519 10522 10526 10529 10532 10536 10542 10549 10555 10558 10557 10556 10558
10362 10363 10364 10365 10365 10366 10367 10369 10369 10370 10372 10372 10371 10372 10371 10370 10371 10375 10377 10377 10377 10378 10379 10382 10386 10389 10393 10396 10398 10401 10402 10403 10404 10407 10410 10412 10413 10414 10415 10418 10422 10426 10429 10432 10434 10437 10439 10441 10444 10449 10452 10453 10456 10459 10461 10464 10466 10468 10470 10471 10473 10476 10479 10481 10484 10486 10488 10490 10492 10495 10498 10501 10505 10509 10512 10515 10519 10521 10524 10528 10531 10535 10541 10547 10550 10551 10552 10554
10357 10358 10358 10358 10359 10360 10362 10363 10363 10364 10365 10364 10364 10364 10363 10363 10364 10368 10370 10371 10371 10372 10374 10377 10381 10384 10386 10390 10392 10394 10396 10397 10399 10403 10405 10407 10409 10411 10412 10415 10419 10422 10425 10428 10431 10434 10436 10437 10440 10445 10448 10449 10452 10455 10458 10460 10463 10464 10466 10467 10470 10472 10475 10477 10479 10482 10485 10487 10489 10492 10495 10498 10501 10504 10507 10510 10513 10516 10520 10524 10526 10529 10532 10536 10540 10543 10545 10547
10352 10352 10352 10353 10354 10355 10357 10357 10357 10357 10357 10357 10357 10357 10356 10356 10358 10361 10364 10365 10366 10367 10368 10371 10374 10376 10380 10383 10385 10387 10390 10392 10394 10398 10401 10403 10405 10407 10408 10410 10414 10417 10420 10423 10426 10428 10431 10433 10436 10440 10444 10446 10448 10451 10454 10456 10458 10460 10462 10463 10466 10468 10471 10473 10476 10479 10482 10484 10486 10489 10492 10495 10497 10500 10503 10506 10509 10513 10517 10521 10523 10525 10528 10531 10534 10537 10540 10543
10346 10347 10348 10349 10350 10351 10351 10351 10350 10351 10351 10351 10351 10351 10350 10351 10351 10353 10356 10359 10360 10361 10362 10364 10367 10369 10372 10376 10378 10380 10384 10387 10390 10393 10396 10398 10400 10402 10404 10406 10409 10412 10415 10418 10421 10423 10426 10428 10431 10435 10439 10442 10444 10446 10448 10451 10453 10456 10458 10460 10462 10465 10467 10469 10472 10475 10478 10480 10482 10486 10489 10491 10493 10497 10499 10502 10506 10510 10514 10517 10520 10522 10525 10528 10531 10534 10536 10540
10342 10342 10343 10344 10345 10345 10345 10345 10345 10345 10345 10346 10345 10344 10344 10345 10344 10345 10349 10352 10353 10353 10354 10356 10359 10361 10365 10368 10371 10374 10377 10381 10385 10388 10390 10393 10395 10397 10399 10401 10404 10407 10410 10414 10416 10419 10422 10424 10427 10431 10435 10437 10439 10441 10443 10445 10448 10452 10454 10456 10458 10460 10463 10465 10468 10471 10474 10476 10479 10482 10485 10487 10490 10493 10497 10499 10503 10507 10510 10513 10516 10518 10521 10525 10528 10529 10532 10535
10338 10338 10339 10340 10340 10341 10340 10340 10340 10340 10340 10340 10339 10337 10337 10338 10337 10338 10342 10345 10346 10345 10346 10348 10351 10354 10357 10361 10364 10367 10371 10375 10379 10381 10384 10388 10389 10391 10393 10396 10399 10403 10406 10409 10412 10415 10418 10421 10423 10427 10431 10433 10435 10437 10438 10441 10444 10447 10450 10451 10453 10456 10458 10461 10464 10466 10469 10472 10475 10478 10480 10482 10486 10490 10493 10496 10499 10503 10506 10509 10512 10514 10517 10521 10523 10524 10525 10527
10334 10335 10336 10337 10337 10336 10336 10336 10335 10335 10334 10333 10332 10330 10330 10330 10329 10330 10333 10336 10337 10337 10338 10340 10343 10346 10349 10353 10357 10360 10364 10369 10373 10375 10378 10382 10383 10386 10390 10393 10395 10398 10401 10405 10408 10411 10414 10417 10419 10423 10426 10429 10431 10432 10434 10436 10439 10442 10445 10447 10449 10452 10454 10457 10459 10462 10465 10468 10471 10474 10476 10478 10481 10485 10488 10490 10494 10498 10502 10505 10508 10510 10513 10515 10517 10518 10519 10520
10331 10333 10333 10333 10333 10332 10332 10331 10330 10329 10328 10327 10326 10324 10323 10322 10322 10323 10324 10326 10327 10328 10330 10332 10335 10338 10341 10345 10349 10353 10358 10363 10367 10370 10373 10376 10379 10383 10387 10389 10391 10393 10396 10400 10404 10406 10409 10412 10415 10418 10421 10424 10427 10428 10430 10432 10435 10439 10441 10444 10446 10448 10450 10453 10456 10458 10461 10463 10466 10469 10472 10475 10477 10480 10483 10485 10489 10493 10497 10500 10503 10505 10507 10509 10510 10512 10513 10515
10329 10330 10330 10329 10328 10328 10327 10325 10324 10323 10322 10321 10320 10318 10316 10316 10316 10317 10317 10317 10318 10320 10322 10324 10327 10330 10334 10337 10342 10346 10351 10356 10361 10364 10367 10370 10374 10378 10382 10384 10386 10389 10392 10396 10399 10402 10405 10408 10411 10413 10416 10419 10422 10424 10426 10428 10431 10434 10437 10439 10441 10443 10446 10448 10451 10454 10457 10459 10462 10465 10468 10471 10473 10476 10478 10480 10483 10487 10491 10494 10497 10499 10501 10503 10504 10506 10507 10510
10326 10326 10325 10325 10324 10323 10322 10320 10319 10318 10317 10316 10314 10312 10311 10310 10310 10311 10311 10311 10311 10313 10315 10317 10319 10323 10326 10329 10334 10339 10344 10351 10355 10358 10360 10364 10368 10372 10375 10377 10380 10384 10387 10391 10394 10397 10400 10403 10406 10408 10411 10414 10417 10420 10422 10424 10426 10429 10432 10434 10437 10439 10441 10444 10447 10450 10452 10455 10457 10460 10463 10466 10469 10471 10474 10476 10478 10481 10485 10488 10491 10494 10496 10497 10499 10501 10502 10505
10322 10322 10322 10321 10320 10318 10317 10316 10315 10313 10312 10311 10309 10307 10305 10304 10305 10305 10305 10305 10306 10307 10308 10310 10312 10316 10319 10323 10327 10333 10339 10345 10348 10351 10355 10358 10362 10365 10367 10370 10374 10377 10381 10385 10388 10392 10395 10398 10401 10403 10406 10409 10412 10415 10417 10419 10422 10424 10426 10429 10432 10435 10437 10440 10442 10445 10448 10451 10453 10455 10458 10460 10463 10467 10470 10472 10475 10477 10480 10484 10487 10490 10492 10493 10494 10496 10499 10502